(°C)
20°
22°
22°
23°
23°
22°
20°
(°C)
18°
19°
20°
21°
22°
21°
19°
ჩა
დას.
დას.
სსდ
სა
სსა
დას.
(კმ/სთ)
5-14
6-14
7-12
6-14
5-13
4-12
4-11
(მმ)
0
1.4
1.6
1.8
0
0
2.7
(%)
66
84
84
73
58
62
79

მზის სიმაღლე

/ 58.4°
sun-icon
UV 4
05:35
20:45
სავსე მთვარე (185°)
21:33
05:38

METAR ინსბრუკი (LOWI)-თვის

დრო პირობები ტემპერატურა/
ნამი
ქარი ხილვადობა ამინდი ღრუბლები წნევა ცვლილება დაუმუშავებელი
VFR 18°C / 15°C 360º variable 320º to 040º 5kt >10km - Few Clouds 4000ft
Scattered Clouds 6000ft
Broken Clouds 8000ft
1022 Temporary: Showers Rain . LOWI 161150Z 36005KT 320V040 9999 FEW040 SCT060 BKN080 18/15 Q1022 RESHRA TEMPO SHRA
VFR 17°C / 14°C 250º variable 220º to 280º 8kt >10km Showers Rain 3.00mm precipitation Vertical Visibility of 0ft.
Scattered Clouds 6000ft
Few Clouds 6000ft
Broken Clouds 7000ft
1022 Temporary: Light Showers Rain . LOWI 161120Z 25008KT 220V280 9999 SHRA FEW040 SCT060 FEW060CB BKN070 17/14 Q1022 TEMPO -SHRA
VFR 18°C / 14°C 270º variable 240º to 320º 9kt >10km Light Showers Rain 3.00mm precipitation Vertical Visibility of 0ft.
Scattered Clouds 6000ft
Few Clouds 6000ft
Broken Clouds 7000ft
1021 Temporary: Showers Rain . LOWI 161050Z 27009KT 240V320 9999 -SHRA FEW040 SCT060 FEW060CB BKN070 18/14 Q1021 TEMPO SHRA
VFR 17°C / 15°C 310º 8kt >10km Light Showers Rain 3.00mm precipitation Vertical Visibility of 0ft.
Scattered Clouds 6000ft
Few Clouds 6000ft
Broken Clouds 7000ft
1021 Temporary: Showers Rain . LOWI 161020Z 31008KT 9999 -SHRA FEW040 SCT060 FEW060CB BKN070 17/15 Q1021 TEMPO SHRA
VFR 16°C / 14°C 280º 14kt >10km Light Showers Rain 3.00mm precipitation Vertical Visibility of 0ft.
Scattered Clouds 6000ft
Broken Clouds 7000ft
1021 Temporary: Showers Rain . LOWI 160950Z 28014KT 9999 -SHRA FEW035 SCT060 BKN070 16/14 Q1021 RETSRA TEMPO SHRA
VFR 19°C / 13°C 260º 18kt >10km Thunderstorm Rain 3.00mm precipitation Vertical Visibility of 0ft.
Scattered Clouds 6000ft
Few Clouds 6000ft
Broken Clouds 9000ft
1020 Temporary: Showers Rain . LOWI 160920Z 26018KT 9999 TSRA FEW035 SCT060 FEW060CB BKN090 19/13 Q1020 TEMPO SHRA
VFR 21°C / 14°C 270º variable 220º to 300º 9kt >10km - Few Clouds 3500ft
Scattered Clouds 6000ft
Broken Clouds 9000ft
1020 Temporary: Showers Rain . LOWI 160850Z 27009KT 220V300 9999 FEW035 SCT060 BKN090 21/14 Q1020 TEMPO SHRA
VFR 21°C / 15°C variable 2kt >10km - Few Clouds 3500ft
Scattered Clouds 6000ft
Broken Clouds 9000ft
1020 Temporary: from 0900 Showers Rain . LOWI 160820Z VRB02KT 9999 FEW035 SCT060 BKN090 21/15 Q1020 TEMPO FM0900 SHRA
VFR 20°C / 15°C variable 1kt >10km - Few Clouds 2500ft
Broken Clouds 9000ft
1020 No Significant change LOWI 160750Z VRB01KT 9999 FEW025 BKN090 20/15 Q1020 NOSIG
VFR 19°C / 15°C variable 2kt >10km - Few Clouds 2500ft
Few Clouds 6000ft
Scattered Clouds 9000ft
1020 No Significant change LOWI 160720Z VRB02KT 9999 FEW025 FEW060CB SCT090 19/15 Q1020 NOSIG
VFR 18°C / 15°C variable 2kt >10km - Few Clouds 800ft 1020 No Significant change LOWI 160650Z VRB02KT 9999 FEW008 18/15 Q1020 NOSIG
VFR 17°C / 15°C variable 1kt >10km - Few Clouds 500ft 1020 No Significant change LOWI 160620Z VRB01KT 9999 FEW005 17/15 Q1020 NOSIG
VFR 16°C / 15°C variable 2kt >10km - Few Clouds 500ft
Scattered Clouds 7000ft
1020 No Significant change LOWI 160550Z VRB02KT 9999 FEW005 SCT070 16/15 Q1020 NOSIG
VFR 15°C / 14°C variable 1kt >10km - Few Clouds 800ft
Broken Clouds 8000ft
1020 No Significant change LOWI 160520Z VRB01KT 9999 FEW008 BKN080 15/14 Q1020 NOSIG
VFR 15°C / 14°C variable 1kt >10km - Few Clouds 800ft
Broken Clouds 8000ft
1020 No Significant change LOWI 160450Z VRB01KT 9999 FEW008 BKN080 15/14 Q1020 NOSIG
VFR 15°C / 14°C variable 2kt >10km - Few Clouds 800ft
Broken Clouds 8000ft
1020 No Significant change LOWI 160420Z VRB02KT 9999 FEW008 BKN080 15/14 Q1020 RESHRA NOSIG
VFR 16°C / 14°C variable 2kt >10km Showers Rain 3.00mm precipitation Vertical Visibility of 0ft.
Broken Clouds 8000ft
1020 Becoming: NSW LOWI 160350Z VRB02KT 9999 SHRA FEW015 BKN080 16/14 Q1020 BECMG NSW
VFR 16°C / 14°C variable 2kt >10km Light Rain 1.00mm precipitation Vertical Visibility of 0ft.
Broken Clouds 9000ft
1019 - LOWI 160320Z AUTO VRB02KT 9999 -RA FEW046 BKN090 16/14 Q1019
VFR 16°C / 15°C 110º variable 070º to 150º 3kt >10km - Few Clouds 7000ft
Scattered Clouds 9000ft
Broken Clouds 10000ft
1019 - LOWI 160250Z AUTO 11003KT 070V150 9999 FEW070 SCT090 BKN100 16/15 Q1019
VFR 16°C / 14°C variable 4kt >10km - Broken Clouds 8000ft 1019 - LOWI 160220Z AUTO VRB04KT 9999 BKN080 16/14 Q1019
VFR 16°C / 14°C variable 2kt >10km in the Vicinity Thunderstorm Vertical Visibility of 0ft.
Broken Clouds 8000ft
1019 - LOWI 160150Z AUTO VRB02KT 9999 VCTS //////CB FEW070 BKN080 16/14 Q1019
VFR 17°C / 13°C 250º 3kt >10km Light Showers Rain 3.00mm precipitation Vertical Visibility of 0ft.
Scattered Clouds 4800ft
Broken Clouds 8000ft
1019 - LOWI 160120Z AUTO 25003KT 9999 -SHRA //////CB FEW019 SCT048 BKN080 17/13 Q1019 RESHRA
VFR 17°C / 12°C variable 1kt >10km - Broken Clouds 7000ft 1019 - LOWI 160050Z AUTO VRB01KT 9999 //////CB BKN070 17/12 Q1019
VFR 17°C / 12°C variable 2kt >10km - Broken Clouds 7000ft 1018 - LOWI 160020Z AUTO VRB02KT 9999 BKN070 17/12 Q1018

VFR

18°C / 15°C

[მეტი]
ქარი 360º variable 320º to 040º 5kt
ხილვადობა >10km
ამინდი -
ღრუბლები Few Clouds 4000ft
Scattered Clouds 6000ft
Broken Clouds 8000ft
წნევა 1022
ცვლილება Temporary: Showers Rain .
დაუმუშავებელი LOWI 161150Z 36005KT 320V040 9999 FEW040 SCT060 BKN080 18/15 Q1022 RESHRA TEMPO SHRA

VFR

17°C / 14°C

[მეტი]
ქარი 250º variable 220º to 280º 8kt
ხილვადობა >10km
ამინდი Showers Rain 3.00mm precipitation
ღრუბლები Vertical Visibility of 0ft.
Scattered Clouds 6000ft
Few Clouds 6000ft
Broken Clouds 7000ft
წნევა 1022
ცვლილება Temporary: Light Showers Rain .
დაუმუშავებელი LOWI 161120Z 25008KT 220V280 9999 SHRA FEW040 SCT060 FEW060CB BKN070 17/14 Q1022 TEMPO -SHRA

VFR

18°C / 14°C

[მეტი]
ქარი 270º variable 240º to 320º 9kt
ხილვადობა >10km
ამინდი Light Showers Rain 3.00mm precipitation
ღრუბლები Vertical Visibility of 0ft.
Scattered Clouds 6000ft
Few Clouds 6000ft
Broken Clouds 7000ft
წნევა 1021
ცვლილება Temporary: Showers Rain .
დაუმუშავებელი LOWI 161050Z 27009KT 240V320 9999 -SHRA FEW040 SCT060 FEW060CB BKN070 18/14 Q1021 TEMPO SHRA

VFR

17°C / 15°C

[მეტი]
ქარი 310º 8kt
ხილვადობა >10km
ამინდი Light Showers Rain 3.00mm precipitation
ღრუბლები Vertical Visibility of 0ft.
Scattered Clouds 6000ft
Few Clouds 6000ft
Broken Clouds 7000ft
წნევა 1021
ცვლილება Temporary: Showers Rain .
დაუმუშავებელი LOWI 161020Z 31008KT 9999 -SHRA FEW040 SCT060 FEW060CB BKN070 17/15 Q1021 TEMPO SHRA

VFR

16°C / 14°C

[მეტი]
ქარი 280º 14kt
ხილვადობა >10km
ამინდი Light Showers Rain 3.00mm precipitation
ღრუბლები Vertical Visibility of 0ft.
Scattered Clouds 6000ft
Broken Clouds 7000ft
წნევა 1021
ცვლილება Temporary: Showers Rain .
დაუმუშავებელი LOWI 160950Z 28014KT 9999 -SHRA FEW035 SCT060 BKN070 16/14 Q1021 RETSRA TEMPO SHRA

VFR

19°C / 13°C

[მეტი]
ქარი 260º 18kt
ხილვადობა >10km
ამინდი Thunderstorm Rain 3.00mm precipitation
ღრუბლები Vertical Visibility of 0ft.
Scattered Clouds 6000ft
Few Clouds 6000ft
Broken Clouds 9000ft
წნევა 1020
ცვლილება Temporary: Showers Rain .
დაუმუშავებელი LOWI 160920Z 26018KT 9999 TSRA FEW035 SCT060 FEW060CB BKN090 19/13 Q1020 TEMPO SHRA

VFR

21°C / 14°C

[მეტი]
ქარი 270º variable 220º to 300º 9kt
ხილვადობა >10km
ამინდი -
ღრუბლები Few Clouds 3500ft
Scattered Clouds 6000ft
Broken Clouds 9000ft
წნევა 1020
ცვლილება Temporary: Showers Rain .
დაუმუშავებელი LOWI 160850Z 27009KT 220V300 9999 FEW035 SCT060 BKN090 21/14 Q1020 TEMPO SHRA

VFR

21°C / 15°C

[მეტი]
ქარი variable 2kt
ხილვადობა >10km
ამინდი -
ღრუბლები Few Clouds 3500ft
Scattered Clouds 6000ft
Broken Clouds 9000ft
წნევა 1020
ცვლილება Temporary: from 0900 Showers Rain .
დაუმუშავებელი LOWI 160820Z VRB02KT 9999 FEW035 SCT060 BKN090 21/15 Q1020 TEMPO FM0900 SHRA

VFR

20°C / 15°C

[მეტი]
ქარი variable 1kt
ხილვადობა >10km
ამინდი -
ღრუბლები Few Clouds 2500ft
Broken Clouds 9000ft
წნევა 1020
ცვლილება No Significant change
დაუმუშავებელი LOWI 160750Z VRB01KT 9999 FEW025 BKN090 20/15 Q1020 NOSIG

VFR

19°C / 15°C

[მეტი]
ქარი variable 2kt
ხილვადობა >10km
ამინდი -
ღრუბლები Few Clouds 2500ft
Few Clouds 6000ft
Scattered Clouds 9000ft
წნევა 1020
ცვლილება No Significant change
დაუმუშავებელი LOWI 160720Z VRB02KT 9999 FEW025 FEW060CB SCT090 19/15 Q1020 NOSIG

VFR

18°C / 15°C

[მეტი]
ქარი variable 2kt
ხილვადობა >10km
ამინდი -
ღრუბლები Few Clouds 800ft
წნევა 1020
ცვლილება No Significant change
დაუმუშავებელი LOWI 160650Z VRB02KT 9999 FEW008 18/15 Q1020 NOSIG

VFR

17°C / 15°C

[მეტი]
ქარი variable 1kt
ხილვადობა >10km
ამინდი -
ღრუბლები Few Clouds 500ft
წნევა 1020
ცვლილება No Significant change
დაუმუშავებელი LOWI 160620Z VRB01KT 9999 FEW005 17/15 Q1020 NOSIG

VFR

16°C / 15°C

[მეტი]
ქარი variable 2kt
ხილვადობა >10km
ამინდი -
ღრუბლები Few Clouds 500ft
Scattered Clouds 7000ft
წნევა 1020
ცვლილება No Significant change
დაუმუშავებელი LOWI 160550Z VRB02KT 9999 FEW005 SCT070 16/15 Q1020 NOSIG

VFR

15°C / 14°C

[მეტი]
ქარი variable 1kt
ხილვადობა >10km
ამინდი -
ღრუბლები Few Clouds 800ft
Broken Clouds 8000ft
წნევა 1020
ცვლილება No Significant change
დაუმუშავებელი LOWI 160520Z VRB01KT 9999 FEW008 BKN080 15/14 Q1020 NOSIG

VFR

15°C / 14°C

[მეტი]
ქარი variable 1kt
ხილვადობა >10km
ამინდი -
ღრუბლები Few Clouds 800ft
Broken Clouds 8000ft
წნევა 1020
ცვლილება No Significant change
დაუმუშავებელი LOWI 160450Z VRB01KT 9999 FEW008 BKN080 15/14 Q1020 NOSIG

VFR

15°C / 14°C

[მეტი]
ქარი variable 2kt
ხილვადობა >10km
ამინდი -
ღრუბლები Few Clouds 800ft
Broken Clouds 8000ft
წნევა 1020
ცვლილება No Significant change
დაუმუშავებელი LOWI 160420Z VRB02KT 9999 FEW008 BKN080 15/14 Q1020 RESHRA NOSIG

VFR

16°C / 14°C

[მეტი]
ქარი variable 2kt
ხილვადობა >10km
ამინდი Showers Rain 3.00mm precipitation
ღრუბლები Vertical Visibility of 0ft.
Broken Clouds 8000ft
წნევა 1020
ცვლილება Becoming: NSW
დაუმუშავებელი LOWI 160350Z VRB02KT 9999 SHRA FEW015 BKN080 16/14 Q1020 BECMG NSW

VFR

16°C / 14°C

[მეტი]
ქარი variable 2kt
ხილვადობა >10km
ამინდი Light Rain 1.00mm precipitation
ღრუბლები Vertical Visibility of 0ft.
Broken Clouds 9000ft
წნევა 1019
ცვლილება -
დაუმუშავებელი LOWI 160320Z AUTO VRB02KT 9999 -RA FEW046 BKN090 16/14 Q1019

VFR

16°C / 15°C

[მეტი]
ქარი 110º variable 070º to 150º 3kt
ხილვადობა >10km
ამინდი -
ღრუბლები Few Clouds 7000ft
Scattered Clouds 9000ft
Broken Clouds 10000ft
წნევა 1019
ცვლილება -
დაუმუშავებელი LOWI 160250Z AUTO 11003KT 070V150 9999 FEW070 SCT090 BKN100 16/15 Q1019

VFR

16°C / 14°C

[მეტი]
ქარი variable 4kt
ხილვადობა >10km
ამინდი -
ღრუბლები Broken Clouds 8000ft
წნევა 1019
ცვლილება -
დაუმუშავებელი LOWI 160220Z AUTO VRB04KT 9999 BKN080 16/14 Q1019

VFR

16°C / 14°C

[მეტი]
ქარი variable 2kt
ხილვადობა >10km
ამინდი in the Vicinity Thunderstorm
ღრუბლები Vertical Visibility of 0ft.
Broken Clouds 8000ft
წნევა 1019
ცვლილება -
დაუმუშავებელი LOWI 160150Z AUTO VRB02KT 9999 VCTS //////CB FEW070 BKN080 16/14 Q1019

VFR

17°C / 13°C

[მეტი]
ქარი 250º 3kt
ხილვადობა >10km
ამინდი Light Showers Rain 3.00mm precipitation
ღრუბლები Vertical Visibility of 0ft.
Scattered Clouds 4800ft
Broken Clouds 8000ft
წნევა 1019
ცვლილება -
დაუმუშავებელი LOWI 160120Z AUTO 25003KT 9999 -SHRA //////CB FEW019 SCT048 BKN080 17/13 Q1019 RESHRA

VFR

17°C / 12°C

[მეტი]
ქარი variable 1kt
ხილვადობა >10km
ამინდი -
ღრუბლები Broken Clouds 7000ft
წნევა 1019
ცვლილება -
დაუმუშავებელი LOWI 160050Z AUTO VRB01KT 9999 //////CB BKN070 17/12 Q1019

VFR

17°C / 12°C

[მეტი]
ქარი variable 2kt
ხილვადობა >10km
ამინდი -
ღრუბლები Broken Clouds 7000ft
წნევა 1018
ცვლილება -
დაუმუშავებელი LOWI 160020Z AUTO VRB02KT 9999 BKN070 17/12 Q1018

TAF ინსბრუკი (LOWI)-თვის

From till


Maximum Temperature 24ºC on . Minimum Temperature 13ºC on .
From till Wind 270º 6kt. Visibility 10km or more. Few Clouds 4000ft. Broken Clouds 6000ft.
Temporarly from till Showers Rain . Broken Clouds 6000ft. Few Clouds 6000ft.
With 40% probability, Temporarly from till Wind 250º 15kt. Gust 25kt. Thunderstorm Rain . Scattered Clouds 5000ft. Broken Clouds 6000ft.
Temporarly from till Rain .

დაუმუშავებელი: TAF LOWI 161115Z 1612/1712 27006KT 9999 FEW040 BKN060 TX24/1712Z TN13/1703Z TEMPO 1612/1620 SHRA BKN060 FEW060CB PROB40 TEMPO 1612/1620 25015G25KT TSRA SCT050CB BKN060 TEMPO 1620/1624 RA

რადარი ინსბრუკი-თვის

გაწურეთ
Მსუბუქი
ზომიერი
Მძიმე
Ძალიან მძიმე
სეტყვა

მდებარეობის მარკერი მოთავსებულია ინსბრუკი -ზე. ეს ანიმაცია აჩვენებს ნალექების სარადარო მონაცემებს როგორც ბოლო საათის განმავლობაში, ასევე 2h პროგნოზს. წვიმა ან თოვლის მსუბუქი ვარდნა შეიძლება უჩინარი იყოს რადარისთვის. ნალექების ინტენსივობა არის კოდირებული ფერით, დაწყებული ღია ლურჯიდან ნარინჯისფერამდე.
Copyright 2022 Deutscher Wetterdienst / meteoblue.

მიმდინარე სატელიტისა და წვიმის სურათები ინსბრუკი-თვის, ავსტრია

ლოკაციის მარკერი დაყენებყლია ინსბრუკიზე. [მეტი]

რეალურ დროში სატელიტური სურათი აერთიანებს ხილულ სინათლეს დღისით ღამის განმავლობაში ინფრაწითელ გამოსხივებასთან ერთად. ღამით, სურათი არ არის მუქი, რადგან ინფრაწითელ გამოსხივებას შეუძლია ტემპერატურის განსხვავებების დადგენა. სამწუხაროდ, დაბალი ღრუბლები და ნისლი ძნელია განასხვავონ მიწის ტემპერატურისგან და, შესაბამისად, ისინი შეიძლება თითქმის არ ჩანდეს ღამით. Meteosat სატელიტური გამოსახულება ევროპისთვის ახლდება რეალურ დროში ყოველ 5 წუთში. GOES-16/GOES-17 (ჩრდილოეთი და სამხრეთ ამერიკა) და ჰიმავარი (აზია) გამოსახულებები ახლდება ყოველ 10 წუთში.

ნალექიანობა განისაზღვრება რადარიდან ან სატელიტიდან. ღამით ნალექიანობის განსაზღვრა სატელიტიდან ნაკლებად ზუსტია ვიდრე დღისით. ნარინჯისფერი ჯვრები აღნიშნავს ადგილებს, სადაც ელვა იყო დაფიქსირებული (ევროპაზე).

საავტორო უფლებები 2022 EUMETSAT / meteoblue. ელვის შესახებ მონაცემები მოწოდებული nowcast მიერ.

თავში დაბრუნება